Simultaneous Nadir Overpasses (SNOs) Predictions

Prediction of SNOs between GOES-16 and LANDSAT-8 Satellite Orbit:

Table of predicted SNOs for the next 14.0 days since TLE Epoch: 5/11/2019
Index Date Time (GOES-16) GOES-16 Lat,Lon LANDSAT-8 Lat,Lon Distance(km) Time Diff (sec)
1 05/12/2019 03:09:10 -0.00, -75.19 0.11, -74.68 57.40 80
2 05/14/2019 02:57:01 -0.00, -75.19 0.76, -71.73 393.79 80
3 05/14/2019 15:18:17 0.00, -75.21 0.34, -76.89 191.22 80
4 05/16/2019 15:08:47 0.00, -75.22 -0.24, -73.93 145.98 80
5 05/17/2019 03:30:11 -0.00, -75.21 -0.85, -79.13 445.10 80
6 05/18/2019 14:56:39 -0.00, -75.24 -0.93, -70.99 483.47 80
7 05/19/2019 03:18:02 0.00, -75.23 -0.22, -76.17 107.53 80
8 05/21/2019 03:03:14 0.01, -75.26 0.46, -73.24 230.52 80
9 05/21/2019 15:24:30 -0.01, -75.28 0.65, -78.39 354.28 80
10 05/23/2019 15:12:22 -0.01, -75.31 -0.01, -75.45 15.95 80




NCC Satellite Simultaneous Nadir Overpasses (SNOs) Prediction Service
